[[{"header":{"parameterUnit":"m.s-1","parameterCategory":1,"la1":30.2991,"la2":30.254,"lo1":-89.0895,"lo2":-89.0444,"dy":0.0017,"dx":0.0017,"nx":28,"ny":28,"refTime":"2023-10-24T21:00:00:Z","depth":0,"parameterNumber":2,"parameterNumberName":"U-component_of_WINDS"},"data":[0,0,0,0,0,0,0,0,0,0,0,0,0,0,0,0,0,0,0,0,0,0,0,0,0,0,0,0,0,0,0,0,0,0,0,0,0,0,0,0,0,0,0,0,0,0,0,0,0,0,0,0,0,0,0,0,0,0,-4.1244,-4.1246,0,-4.1373,-4.1374,-4.1375,-4.1343,-4.1341,-4.1338,-4.1336,-4.1471,-4.1476,-4.1482,0,0,0,0,0,0,0,0,0,0,0,0,0,-4.0975,-4.098,-4.1244,-4.1246,-4.1247,-4.1372,-4.1374,-4.1376,-4.1344,-4.1341,-4.1338,-4.1335,-4.1469,-4.1476,-4.1483,0,0,0,0,0,0,0,0,0,0,0,0,0,-4.1097,-4.0982,-4.1244,-4.1246,-4.1248,-4.1372,-4.1374,-4.1376,-4.1344,-4.134,-4.1337,-4.1333,-4.1466,-4.1475,-4.1484,-4.1615,0,0,-4.1511,-4.1515,0,0,0,0,0,0,0,0,-4.109,-4.1107,-4.1244,-4.1246,-4.1248,-4.1338,-4.1329,-4.1456,-4.1345,-4.1308,-4.1336,-4.1331,-4.143,-4.1442,-4.1474,-4.1621,-4.1627,-4.1512,-4.1517,-4.1521,-4.1524,0,0,0,0,0,0,0,-4.1082,-4.1101,-4.1295,-4.1246,-4.1249,-4.1242,-4.1255,-4.1353,-4.1389,-4.1311,-4.1309,-4.1324,-4.143,-4.1465,-4.1477,-4.1629,-4.1512,-4.152,-4.1525,-4.1529,-4.189,-4.1894,0,0,0,0,0,0,-4.1071,-4.1094,-4.1291,-4.1299,-4.1158,-4.125,-4.1265,-4.1313,-4.1387,-4.1395,-4.1327,-4.1322,-4.1452,-4.1467,-4.1482,-4.1638,-4.1521,-4.1529,-4.1535,-4.1886,-4.1891,-4.1895,0,0,0,0,0,0,-4.1065,-4.1089,-4.1286,-4.1196,-4.1221,-4.1259,-4.1313,-4.1318,-4.1352,-4.14,-4.1406,-4.1356,-4.145,-4.1469,-4.1582,-4.1643,-4.1533,-4.1542,-4.1881,-4.1887,-4.1893,-4.1954,0,0,0,0,0,0,-4.1058,-4.1087,-4.1136,-4.1197,-4.1225,-4.1382,-4.1317,-4.1323,-4.1368,-4.1362,-4.1429,-4.1436,-4.1448,-4.1568,-4.159,-4.1653,-4.1549,-4.1875,-4.1884,-4.1891,-4.1946,-4.1961,-4.1974,0,0,0,0,0,-4.1048,-4.1149,-4.1138,-4.1162,-4.1287,-4.1386,-4.1402,-4.1412,-4.1373,-4.1423,-4.1453,-4.1434,-4.1633,-4.158,-4.1605,-4.1671,-4.1871,-4.1881,-4.1891,-4.194,-4.1959,-4.1974,0,0,0,0,0,0,-4.1094,-4.1156,-4.1146,-4.1269,-4.1322,-4.138,-4.1443,-4.1432,-4.1498,-4.149,-4.1502,-4.1518,-4.1632,-4.1664,-4.1603,-4.1802,-4.1747,-4.1762,-4.1776,-4.1794,-4.1808,-4.1796,-4.1556,0,0,0,0,0,-4.1118,-4.1192,-4.1243,-4.1347,-4.1374,-4.1404,-4.1448,-4.1452,-4.1508,-4.153,-4.1569,-4.1625,-4.17,-4.175,-4.1822,-4.1952,-4.1966,-4.201,-4.2024,-4.2035,-4.2047,-4.2118,-4.2138,-4.1927,-4.1927,-4.1927,0,0,-4.1169,-4.1212,-4.1258,-4.1357,-4.1399,-4.1475,-4.1423,-4.1507,-4.1564,-4.1543,-4.165,-4.1682,-4.1746,-4.1868,-4.1924,-4.1897,-4.2109,-4.2048,-4.2056,-4.2062,-4.213,-4.215,-4.2168,-4.1933,-4.1932,-4.1931,0,0,-4.13,-4.1341,-4.1431,-4.1474,-4.1538,-4.1557,-4.1579,-4.164,-4.1659,-4.1768,-4.1753,-4.1823,-4.1953,-4.1998,-4.2039,-4.219,-4.2175,-4.2214,-4.2285,-4.2355,-4.2371,-4.2386,-4.2439,-4.2457,-4.2226,-4.2227,-4.2227,0,-4.1354,-4.1468,-4.1479,-4.1564,-4.1608,-4.1593,-4.1684,-4.1727,-4.1811,-4.1842,-4.1812,-4.1974,-4.2017,-4.2149,-4.2186,-4.222,-4.2245,-4.2204,-4.2368,-4.2383,-4.2397,-4.2447,-4.2467,-4.2231,-4.223,-4.223,-4.2229,0,-4.1532,-4.1612,-4.1678,-4.1758,-4.1811,-4.1899,-4.1924,-4.1976,-4.1976,-4.2,-4.2111,-4.2162,-4.2243,-4.2276,-4.2278,-4.2409,-4.239,-4.2365,-4.2309,-4.2421,-4.2468,-4.2488,-4.2236,-4.2235,-4.2234,-4.2233,0,0,-4.1692,-4.1779,-4.1802,-4.1839,-4.1909,-4.1972,-4.2061,-4.214,-4.2183,-4.2244,-4.2318,-4.2429,-4.2405,-4.2451,-4.2459,-4.252,-4.2635,-4.2487,-4.2488,-4.251,-4.2782,-4.2799,-4.2821,-4.2627,-4.2631,-4.2634,-4.2776,0,-4.1827,-4.1981,-4.1994,-4.2133,-4.2206,-4.2195,-4.2272,-4.2324,-4.235,-4.2418,-4.2447,-4.2524,-4.2488,-4.2515,-4.2576,-4.2608,-4.269,-4.2599,-4.2696,-4.27,-4.2677,-4.2846,-4.2864,-4.2996,-4.2795,-4.2798,-4.2801,0,-4.2004,-4.2068,-4.2214,-4.2275,-4.2306,-4.2375,-4.2449,-4.2514,-4.2574,-4.2589,-4.2641,-4.264,-4.2733,-4.2677,-4.2805,-4.2743,-4.2784,-4.2807,-4.2812,-4.2819,-4.2754,-4.2856,-4.3038,-4.3057,-4.283,-4.2828,-4.2826,0,-4.2103,-4.2227,-4.2329,-4.2362,-4.2436,-4.2484,-4.2518,-4.2574,-4.2621,-4.2687,-4.2718,-4.2794,-4.2836,-4.2896,-4.2916,-4.2874,-4.3043,-4.2989,-4.3058,-4.3057,-4.3091,-4.3088,-4.328,-4.3123,-4.3122,-4.3122,-4.3122,0,-4.2251,-4.234,-4.2375,-4.2438,-4.2538,-4.2554,-4.2653,-4.2684,-4.2735,-4.2805,-4.2801,-4.2867,-4.2892,-4.2963,-4.2981,-4.3083,-4.3103,-4.3117,-4.312,-4.3116,-4.3113,-4.314,-4.3131,-4.3127,-4.3126,-4.3125,-4.3124,0,-4.2376,-4.2403,-4.2514,-4.2576,-4.2594,-4.2665,-4.2718,-4.278,-4.2805,-4.2894,-4.2916,-4.2956,-4.3039,-4.3067,-4.3168,-4.318,-4.3299,-4.3296,-4.3278,-4.3277,-4.3344,-4.3336,-4.3558,-4.3587,-4.3413,-4.3414,-4.3416,0,-4.2467,-4.2535,-4.2604,-4.265,-4.2685,-4.276,-4.2807,-4.2827,-4.2878,-4.2952,-4.3005,-4.3088,-4.3154,-4.3288,-4.3327,-4.3405,-4.3401,-4.3474,-4.3413,-4.3406,-4.34,-4.3394,-4.3401,-4.3484,-4.3486,-4.3487,-4.3489,0,-4.2625,-4.2635,-4.2703,-4.2778,-4.2835,-4.2894,-4.2952,-4.299,-4.3019,-4.3076,-4.316,-4.3212,-4.3315,-4.3397,-4.3476,-4.3512,-4.3506,-4.3508,-4.3528,-4.3522,-4.3508,-4.3514,-4.3306,-4.3502,-4.3501,-4.35,-4.3499,-4.3498,-4.2734,-4.2794,-4.2852,-4.2929,-4.2974,-4.3028,-4.3089,-4.3123,-4.3193,-4.3277,-4.3286,-4.3376,-4.3437,-4.3543,-4.3583,-4.3656,-4.3635,-4.3664,-4.3671,-4.3677,-4.3681,-4.3499,-4.3671,-4.367,-4.367,-4.367,-4.367,0,-4.289,-4.2927,-4.2997,-4.3077,-4.3138,-4.3127,-4.3191,-4.3243,-4.3322,-4.3379,-4.3445,-4.3542,-4.3622,-4.3668,-4.3749,-4.3798,-4.3797,-4.3818,-4.3813,-4.3821,-4.3696,-4.3669,-4.3817,-4.3817,-4.3817,-4.3817,-4.3817,-4.3817,-4.2977,-4.3077,-4.3095,-4.3219,-4.3256,-4.3344,-4.3381,-4.3432,-4.3477,-4.3585,-4.3651,-4.3681,-4.3734,-4.3818,-4.3892,-4.3904,-4.3932,-4.3955,-4.3965,-4.3846,-4.383,-4.3816,-4.3791,-4.3962,-4.3962,-4.4084,-4.4085,-4.4086]},{"header":{"parameterUnit":"m.s-1","parameterCategory":1,"la1":30.2991,"la2":30.254,"lo1":-89.0895,"lo2":-89.0444,"dy":0.0017,"dx":0.0017,"nx":28,"ny":28,"refTime":"2023-10-24T21:00:00:Z","depth":0,"parameterNumber":3,"parameterNumberName":"V-component_of_WINDS"},"data":[0,0,0,0,0,0,0,0,0,0,0,0,0,0,0,0,0,0,0,0,0,0,0,0,0,0,0,0,0,0,0,0,0,0,0,0,0,0,0,0,0,0,0,0,0,0,0,0,0,0,0,0,0,0,0,0,0,0,2.528,2.5279,0,2.5193,2.5192,2.5191,2.5044,2.5041,2.5038,2.5036,2.4951,2.4951,2.4951,0,0,0,0,0,0,0,0,0,0,0,0,0,2.5325,2.5325,2.528,2.5279,2.5278,2.5194,2.5192,2.5191,2.5044,2.5041,2.5038,2.5034,2.495,2.4951,2.4951,0,0,0,0,0,0,0,0,0,0,0,0,0,2.5279,2.5325,2.5281,2.5195,2.5186,2.5194,2.5192,2.5191,2.5045,2.5041,2.5037,2.5033,2.495,2.4951,2.4951,2.5037,0,0,2.4953,2.4953,0,0,0,0,0,0,0,0,2.5281,2.5277,2.5208,2.5201,2.5191,2.5125,2.5176,2.5139,2.5046,2.5099,2.5036,2.5031,2.5012,2.5007,2.5,2.5033,2.5029,2.4953,2.4953,2.4953,2.4953,0,0,0,0,0,0,0,2.5285,2.528,2.5246,2.5208,2.5197,2.5162,2.5151,2.5169,2.508,2.5094,2.5083,2.5074,2.5007,2.5,2.4997,2.5028,2.4953,2.4953,2.4953,2.4954,2.5129,2.5133,0,0,0,0,0,0,2.53,2.5284,2.5249,2.5243,2.5227,2.5165,2.5152,2.5151,2.5079,2.5064,2.5078,2.5068,2.5001,2.4997,2.4994,2.5089,2.4953,2.4954,2.4954,2.5124,2.513,2.5135,0,0,0,0,0,0,2.5301,2.5298,2.5252,2.5261,2.5252,2.5168,2.5168,2.5151,2.5144,2.5067,2.5051,2.5087,2.4998,2.4993,2.5027,2.5085,2.4954,2.4954,2.5119,2.5126,2.5132,2.5283,0,0,0,0,0,0,2.5303,2.53,2.533,2.5262,2.5252,2.5286,2.5171,2.5152,2.5145,2.5131,2.5072,2.5058,2.4994,2.5027,2.5028,2.5083,2.4955,2.5114,2.5122,2.513,2.5272,2.5293,2.5312,0,0,0,0,0,2.5305,2.5376,2.5332,2.5329,2.5288,2.529,2.5284,2.5208,2.515,2.5181,2.5132,2.506,2.5079,2.5032,2.5031,2.5087,2.511,2.512,2.5129,2.5263,2.5289,2.5311,0,0,0,0,0,0,2.5453,2.5366,2.5316,2.5366,2.5337,2.5265,2.5301,2.5238,2.5225,2.5212,2.512,2.5108,2.5155,2.5125,2.5075,2.5168,2.5083,2.5094,2.5185,2.5209,2.5229,2.5235,2.4955,0,0,0,0,0,2.5492,2.5499,2.5423,2.5475,2.5463,2.5385,2.5383,2.5327,2.5293,2.528,2.5233,2.5204,2.5204,2.5205,2.52,2.5268,2.5254,2.5306,2.5326,2.5343,2.5352,2.5387,2.541,2.5167,2.5167,2.5167,0,0,2.5571,2.5524,2.5535,2.5504,2.5474,2.5485,2.5375,2.5391,2.5399,2.5283,2.5312,2.5278,2.5239,2.5291,2.5311,2.5267,2.5417,2.5356,2.5369,2.537,2.54,2.5423,2.5444,2.5174,2.5172,2.5171,0,0,2.5721,2.5687,2.5726,2.5699,2.5656,2.5604,2.5614,2.5552,2.5525,2.5552,2.5466,2.5475,2.5476,2.5452,2.5441,2.5586,2.552,2.5587,2.569,2.5725,2.5745,2.5761,2.5813,2.5833,2.5597,2.5598,2.5598,0,2.5826,2.5837,2.5755,2.5777,2.5767,2.5662,2.5703,2.5681,2.5639,2.5635,2.5586,2.5586,2.5553,2.5598,2.5634,2.5628,2.5638,2.5592,2.5748,2.5764,2.5778,2.5827,2.5847,2.5606,2.5605,2.5604,2.5603,0,2.5968,2.5978,2.6016,2.5977,2.5971,2.6003,2.5928,2.5932,2.5879,2.5833,2.5864,2.5821,2.5806,2.5813,2.5761,2.5852,2.5826,2.5765,2.5677,2.5811,2.5856,2.5874,2.5618,2.5615,2.5613,2.5611,0,0,2.6206,2.6123,2.6138,2.612,2.6066,2.6073,2.6101,2.6086,2.6092,2.6068,2.609,2.6094,2.6037,2.6024,2.5969,2.6,2.6119,2.5934,2.5932,2.597,2.6218,2.6264,2.6287,2.6076,2.6079,2.6081,2.6221,0,2.6344,2.6385,2.6314,2.6372,2.6382,2.6284,2.6309,2.628,2.6239,2.6242,2.6198,2.6202,2.6126,2.6118,2.6145,2.6099,2.6167,2.6088,2.6096,2.6098,2.6108,2.631,2.6358,2.6492,2.6238,2.6241,2.6243,0,2.6509,2.6493,2.6553,2.6497,2.6498,2.6521,2.6502,2.6507,2.6473,2.6441,2.6428,2.6363,2.6389,2.6307,2.6342,2.629,2.629,2.6268,2.6272,2.6269,2.6178,2.6312,2.6533,2.6553,2.6269,2.6267,2.6265,0,2.6677,2.667,2.6705,2.6692,2.6628,2.6647,2.6621,2.6583,2.6579,2.6564,2.6561,2.655,2.6544,2.6538,2.6473,2.6418,2.6517,2.6428,2.6492,2.6494,2.6516,2.6515,2.6739,2.6518,2.6517,2.6517,2.6517,0,2.6838,2.6878,2.6779,2.6801,2.6844,2.6763,2.6809,2.6774,2.6741,2.6756,2.6672,2.6688,2.6601,2.6608,2.6558,2.6595,2.6593,2.657,2.6556,2.6576,2.658,2.6574,2.6563,2.6522,2.6521,2.652,2.6519,0,2.7031,2.6966,2.6998,2.6935,2.692,2.6955,2.6902,2.692,2.6875,2.6895,2.6895,2.6825,2.6829,2.6764,2.6756,2.6722,2.6783,2.6753,2.6794,2.6784,2.6852,2.6846,2.7079,2.7106,2.6869,2.6871,2.6873,0,2.7137,2.7166,2.7106,2.7109,2.7088,2.7094,2.709,2.7013,2.7012,2.6978,2.7001,2.6999,2.6992,2.7004,2.6954,2.6948,2.6917,2.6999,2.6915,2.6936,2.6918,2.6917,2.692,2.7016,2.7019,2.7021,2.7023,0,2.7332,2.73,2.7296,2.7283,2.728,2.7266,2.7246,2.7254,2.717,2.7175,2.7178,2.7173,2.7165,2.7164,2.7149,2.7124,2.7061,2.7051,2.7065,2.7086,2.7109,2.7098,2.6841,2.7045,2.7043,2.7041,2.704,2.7039,2.7485,2.7506,2.7468,2.7468,2.7445,2.743,2.7444,2.7402,2.7403,2.7389,2.7344,2.7356,2.7324,2.7297,2.7279,2.7288,2.7248,2.7269,2.7274,2.728,2.7293,2.7109,2.7285,2.7284,2.7284,2.7283,2.7283,0,2.7676,2.7647,2.7648,2.7623,2.7624,2.7564,2.754,2.7545,2.7555,2.7531,2.7526,2.7532,2.7531,2.7482,2.7476,2.7493,2.7464,2.7494,2.7491,2.7487,2.7329,2.7317,2.7518,2.7518,2.7517,2.7517,2.7517,2.7517,2.7775,2.7809,2.7772,2.7795,2.7766,2.7776,2.7768,2.7754,2.7734,2.7743,2.7742,2.7709,2.7675,2.7667,2.7665,2.765,2.7652,2.7692,2.7668,2.7521,2.7498,2.7476,2.7465,2.7693,2.7694,2.7826,2.7827,2.7828]}]]